CZ-4 R/B

Satellite information

Favourite Embed

Satellite Type and Status

ROCKET BODYIN ORBIT

Key statistics

Satellite CZ-4 R/B at a glance.

Uptime

12885

Days in orbit

Revolutions

≈ 13.9

Per day

Orbit

SSO

Sun Synchronous Orbit

Inclination

99.0

Latest

Satellite identification and parameters

Extended collection of information and parameters for CZ-4 R/B.

Object identification

Identified? True

Debris? False

Object name: CZ-4 R/B

International designator: 1990-081D

Object number (NORAD): 20791

Object ID (CCSDS): 20791

Country: PEOPLES REPUBLIC OF CHINA (PRC)

Current information (Y/N): Y

RCS size: LARGE

Orbital parameters

Period: 103.372 minutes

Inclination: 99.0064 deg

SMA: 7296.193 km

Apoapsis: 956.102 km

Periapsis: 880.014 km

RAAN: 309.4563 deg

Eccentricy: 0.0052142

Argument of periapsis: 218.2067 deg

Mean anomaly: 209.0678 deg

Mean motion: 13.93022994 rev/day

Mean motion (dot): 0.00000043 rev/day2

B* drag term: 0.000065899 1/REarth

Two-line elements (TLE)

Creation date: Dec. 12, 2025, 7:26 a.m.

Reference frame: TEME

Reference center: EARTH

Epoch: Dec. 11, 2025, 10:30 p.m. UTC

TLE line 0: 0 CZ-4 R/B

TLE line 1: 1 20791U 90081D 25345.93818553 .00000043 00000-0 65899-4 0 9996

TLE line 2: 2 20791 99.0064 309.4563 0052142 218.2067 209.0678 13.93022994792528

Live tracking on map

Real-time ground track for satellite CZ-4 R/B.

In-orbit conjunctions

A list of the most updated potential collisions computed for object CZ-4 R/B.

Target Orbit TCA Probability of collision Miss distance Type
COSMOS 700 DEB LEO 2025-08-20 04:01:27 0.0002656672 564.0 (m) DEBRIS
FENGYUN 1C DEB SSO 2024-11-18 01:29:02 0.0003913901 107.0 (m) DEBRIS
THOR ABLESTAR DEB LEO 2024-06-05 15:29:11 0.000132501 346.0 (m) DEBRIS

Associated space launch

Chinese polar orbiting meteorological satellite

CZ-4 R/B was lifted into orbit during the mission ‘Long March 4A | Feng Yun 1B’, on board a Long March 4A space rocket.

The launch took place on Sept. 3, 1990, 12:53 a.m. from Launch Complex 7.

For more information about the launch, click the button.

Launch to space Long March 4A | Feng Yun 1B
Long March 4A | Feng Yun 1B

Agency: N/A

Status: Launch Successful

Launch date: Sept. 3, 1990, 12:53 a.m. UTC

Rocket: Long March 4A

Launch pad: Launch Complex 7

Location: Taiyuan Satellite Launch Center, People's Republic of China

...

Latest news about this satellite

There are no fresh news available about this satellite. Check back as we update our databases every day.


Newsletter sign-up

Weekly statistics, charts and insights to help you stay on top of the space industry.